Regional Weather Roundup
Issued by NWS Northern Indiana

Home | Current Version | Previous Version | Graphics & Text | Print | Product List | Glossary On
Versions: 1 2 3 4 5 6 7 8 9 10 11 12 13 14 15 16 17 18 19 20 21 22 23 24 25 26 27 28 29 30 31 32 33 34 35 36 37 38 39 40 41 42 43 44 45 46 47 48 49 50
278
ASUS43 KIWX 241010
RWRIWX

KIWX WEATHER ROUNDUP
NATIONAL WEATHER SERVICE NORTHERN INDIANA
500 AM EST TUE JAN 24 2017

NOTE: "FAIR" INDICATES FEW OR NO CLOUDS BELOW 12,000 FEET WITH NO
SIGNIFICANT WEATHER AND/OR OBSTRUCTIONS TO VISIBILITY.

* THESE STATIONS ARE NOT UNDER NWS QUALITY CONTROL. THEY ALSO MAY NOT
  REPORT WEATHER SUCH AS PRECIPITATION OR FOG.

INZ001>027-241100-
NORTHERN INDIANA

CITY           SKY/WX    TMP DP  RH WIND       PRES   REMARKS
VALPARAISO     CLOUDY    39  36  89 NW7       29.82S
LAPORTE*       CLOUDY    37  35  94 NW9       29.82R
KNOX*          CLOUDY    37  23  56 NW6       29.81S
SOUTH BEND     CLOUDY    37  36  96 NW8       29.80S
GOSHEN         CLOUDY    39  35  86 NW10      29.78R
ROCHESTER*     CLOUDY    41  37  87 NW8       29.80S
WARSAW*        CLOUDY    37  34  87 NW12      29.79R FOG
FORT WAYNE     DRIZZLE   40  37  89 NW9       29.76S
PERU/GRISSOM   CLOUDY    39  39 100 NW13      29.78R
MARION*        CLOUDY    37  37 100 NW12      29.79R FOG

$$
INZ028>050-241100-
CENTRAL INDIANA

CITY           SKY/WX    TMP DP  RH WIND       PRES   REMARKS
LAFAYETTE      CLOUDY    38  36  92 NW6       29.83R
KOKOMO*        CLOUDY    39  37  92 NW13      29.80R FOG
MUNCIE*        CLOUDY    40  38  93 NW10      29.77S FOG
INDIANAPOLIS   CLOUDY    40  35  83 NW12      29.81R

$$
MIZ043>046-050>051-056>058-064>065-071>073-077>080-241100-
SOUTHWEST LOWER MICHIGAN

CITY           SKY/WX    TMP DP  RH WIND       PRES   REMARKS
BATTLE CREEK   CLOUDY    39  39 100 NW13      29.76S FOG
BENTON HARBOR  CLOUDY    39  36  89 NW7       29.81R
COLDWATER*     CLOUDY    40  40 100 NW6       29.75S FOG
HILLSDALE*     RAIN      36  36 100 NW5       29.73R
HOLLAND        CLOUDY    38  36  92 NW6       29.79S
GRAND RAPIDS   CLOUDY    39  36  89 W9        29.77R
KALAMAZOO      CLOUDY    39  36  89 NW9       29.77R FOG
STURGIS*       CLOUDY    38  38 100 NW9       29.76S FOG
THREE RIVERS*  CLOUDY    38  37  96 NW8       29.79R FOG

$$
OHZ001>008-015>018-024>025-241100-
NORTHWEST OHIO

CITY           SKY/WX    TMP DP  RH WIND       PRES   REMARKS
DEFIANCE       LGT RAIN  39  38  96 NW6       29.75R FOG
FINDLAY        CLOUDY    38  34  85 NW5       29.73R
TOLEDO EXPRESS CLOUDY    37  37 100 SW3       29.73R FOG
TOLEDO METCALF CLOUDY    38  36  92 CALM      29.74R
LIMA           LGT RAIN  39  39 100 N7        29.73R FOG

$$
AND FOR LAKE MICHIGAN COASTAL AND OPEN LAKE BUOY OBSERVATIONS

STATION/POSITION TEMP    WIND        PRES    VSBY  WAVE
                 AIR SEA DIR/SP/G                  HT/PER
                 (F)     (DEG/KT/KT) (MB)    (MI)  (FT/S)
CALUMET HARBOR    38     310/  4/  7 1009.7S
MICHIGAN CITY     36     290/ 10/ 10   N/A
BURNS HARBOR      35     310/  8/  9 1010.8R

$$
&&




USA.gov is the U.S. government's official web portal to all federal, state and local government web resources and services.